Wise, VA

4:01 PM EDT on July 23, 2017 (GMT -0400)
Lonesome Pine

Weather History for KLNP - October, 2010

Change the Weather History Date:

Tuesday, October 12, 2010

  Actual Average Record
Temperature  
Mean Temperature 63 °F -  
Max Temperature 73 °F 63 °F 78 °F (1997)
Min Temperature 53 °F 44 °F 35 °F (1996)
Degree Days  
Heating Degree Days 2    
Growing Degree Days 13 (Base 50)    
Moisture  
Dew Point 48 °F    
Average Humidity 59    
Maximum Humidity 72    
Minimum Humidity 38    
Precipitation  
Precipitation 0.00 in - - ()
Sea Level Pressure  
Sea Level Pressure 30.00 in    
Wind  
Wind Speed 4 mph (SW)    
Max Wind Speed 12 mph    
Max Gust Speed -    
Visibility 9 miles    
Events      
Averages and records for this station are not official NWS values.
T = Trace of Precipitation, MM = Missing Value Source: NWS Daily Summary

Daily Weather History Graph

Daily Weather History Graph

Search for Another Location

Airport or City:

Trip Planner

Search our weather history database for the weather conditions in past years. The results will help you decide how hot, cold, wet, or windy it might be!

Date:

Astronomy

Oct. 12, 2010 Rise Set
Actual Time 7:35 AM EDT 6:57 PM EDT
Civil Twilight 7:08 AM EDT 7:23 PM EDT
Nautical Twilight 6:38 AM EDT 7:53 PM EDT
Astronomical Twilight 6:08 AM EDT 8:23 PM EDT
Moon 12:59 PM EDT (10/12) 10:40 PM EDT (10/12)
Length of Visible Light 12h 14m
Length of Day
11h 22m
Waxing Crescent, 28% of the Moon is Illuminated
Oct 12
Waxing Crescent
Oct 14
First Quarter
Oct 22
Full
Oct 30
Last Quarter
Nov 6
New

Hourly Weather History & Observations

Time (EDT) Temp. Dew Point Humidity Pressure Visibility Wind Dir Wind Speed Gust Speed Precip Events Conditions
12:00 AM 59.0 °F 46.4 °F 63% 29.99 in 10.0 mi SSW 3.5 mph - N/A   Clear
12:20 AM 57.2 °F 46.4 °F 67% 29.99 in 10.0 mi SSW 3.5 mph - N/A   Clear
12:40 AM 60.8 °F 46.4 °F 59% 29.99 in 10.0 mi SSW 3.5 mph - N/A   Clear
1:00 AM 59.0 °F 46.4 °F 63% 29.99 in 10.0 mi SSW 3.5 mph - N/A   Clear
1:20 AM 57.2 °F 46.4 °F 67% 29.98 in 10.0 mi SSW 3.5 mph - N/A   Clear
1:40 AM 57.2 °F 46.4 °F 67% 29.98 in 10.0 mi SSW 3.5 mph - N/A   Clear
2:00 AM 57.2 °F 46.4 °F 67% 29.98 in 10.0 mi SW 4.6 mph - N/A   Clear
2:20 AM 57.2 °F 44.6 °F 63% 29.98 in 10.0 mi SW 4.6 mph - N/A   Clear
2:40 AM 55.4 °F 46.4 °F 72% 29.98 in 10.0 mi SSW 3.5 mph - N/A   Clear
3:00 AM 55.4 °F 44.6 °F 67% 29.98 in 10.0 mi SW 4.6 mph - N/A   Clear
3:20 AM 53.6 °F 44.6 °F 72% 29.98 in 10.0 mi SSW 4.6 mph - N/A   Clear
3:40 AM 55.4 °F 44.6 °F 67% 29.98 in 10.0 mi SW 4.6 mph - N/A   Clear
4:00 AM 57.2 °F 46.4 °F 67% 29.98 in 10.0 mi SW 3.5 mph - N/A   Clear
4:20 AM 55.4 °F 44.6 °F 67% 29.98 in 10.0 mi SW 5.8 mph - N/A   Clear
4:40 AM 55.4 °F 46.4 °F 72% 29.98 in 10.0 mi SSW 4.6 mph - N/A   Clear
5:00 AM 55.4 °F 46.4 °F 72% 29.99 in 10.0 mi SSW 4.6 mph - N/A   Clear
5:20 AM 57.2 °F 46.4 °F 67% 29.98 in 10.0 mi SSW 3.5 mph - N/A   Clear
5:40 AM 57.2 °F 46.4 °F 67% 29.98 in 10.0 mi SSW 3.5 mph - N/A   Clear
6:00 AM 59.0 °F 44.6 °F 59% 29.99 in 10.0 mi Calm Calm - N/A   Clear
6:20 AM 59.0 °F 44.6 °F 59% 29.99 in 10.0 mi SSW 3.5 mph - N/A   Clear
6:40 AM 57.2 °F 44.6 °F 63% 29.99 in 10.0 mi SSW 3.5 mph - N/A   Clear
7:00 AM 59.0 °F 44.6 °F 59% 29.99 in 10.0 mi SSW 3.5 mph - N/A   Clear
7:20 AM 59.0 °F 44.6 °F 59% 29.99 in 10.0 mi SSW 3.5 mph - N/A   Clear
7:40 AM 60.8 °F 44.6 °F 55% 29.98 in 10.0 mi Calm Calm - N/A   Clear
8:00 AM 60.8 °F 44.6 °F 55% 29.98 in 10.0 mi Calm Calm - N/A   Clear
8:20 AM 57.2 °F 44.6 °F 63% 29.99 in 10.0 mi SW 3.5 mph - N/A   Clear
8:40 AM 60.8 °F 46.4 °F 59% 30.00 in 7.0 mi Calm Calm - N/A   Clear
9:00 AM 62.6 °F 48.2 °F 59% 30.00 in 10.0 mi WSW 3.5 mph - N/A   Clear
9:20 AM 62.6 °F 46.4 °F 55% 30.01 in 5.0 mi Calm Calm - N/A   Unknown
9:40 AM 64.4 °F 48.2 °F 56% 30.01 in 1.5 mi Calm Calm - N/A   Unknown
10:00 AM 66.2 °F 48.2 °F 52% 30.01 in 3.0 mi West 3.5 mph - N/A   Clear
10:20 AM 68.0 °F 48.2 °F 49% 30.02 in 1.8 mi WSW 5.8 mph - N/A   Unknown
10:40 AM 69.8 °F 48.2 °F 46% 30.02 in 2.0 mi SW 5.8 mph - N/A   Clear
11:00 AM 69.8 °F 48.2 °F 46% 30.02 in 5.0 mi SW 6.9 mph - N/A   Scattered Clouds
11:20 AM 71.6 °F 46.4 °F 41% 30.02 in 10.0 mi SW 6.9 mph - N/A   Clear
11:40 AM 71.6 °F 46.4 °F 41% 30.02 in 10.0 mi SW 5.8 mph - N/A   Clear
12:00 PM 73.4 °F 46.4 °F 38% 30.02 in 5.0 mi SW 4.6 mph - N/A   Clear
12:20 PM 73.4 °F 46.4 °F 38% 30.02 in 7.0 mi WSW 6.9 mph - N/A   Clear
12:40 PM 73.4 °F 46.4 °F 38% 30.01 in 10.0 mi SW 4.6 mph - N/A   Clear
1:00 PM 73.4 °F 46.4 °F 38% 30.01 in 7.0 mi WSW 5.8 mph - N/A   Scattered Clouds
1:20 PM 73.4 °F 46.4 °F 38% 30.01 in 10.0 mi WSW 6.9 mph - N/A   Mostly Cloudy
2:00 PM 71.6 °F 51.8 °F 50% 30.00 in 10.0 mi SW 6.9 mph - N/A   Mostly Cloudy
2:20 PM 69.8 °F 51.8 °F 53% 30.00 in 10.0 mi SW 6.9 mph - N/A   Overcast
2:40 PM 68.0 °F 51.8 °F 56% 29.99 in 10.0 mi SW 6.9 mph - N/A   Mostly Cloudy
3:00 PM 68.0 °F 53.6 °F 60% 29.99 in 10.0 mi WSW 3.5 mph - N/A   Mostly Cloudy
3:20 PM 68.0 °F 51.8 °F 56% 29.99 in 10.0 mi WSW 3.5 mph - N/A   Mostly Cloudy
3:40 PM 69.8 °F 51.8 °F 53% 29.99 in 10.0 mi SW 6.9 mph - N/A   Scattered Clouds
4:00 PM 68.0 °F 53.6 °F 60% 29.99 in 10.0 mi SW 9.2 mph - N/A   Scattered Clouds
4:20 PM 66.2 °F 53.6 °F 64% 29.99 in 10.0 mi SW 10.4 mph - N/A   Scattered Clouds
4:40 PM 66.2 °F 53.6 °F 64% 29.99 in 10.0 mi SW 5.8 mph - N/A   Clear
5:00 PM 66.2 °F 53.6 °F 64% 29.99 in 10.0 mi WSW 5.8 mph - N/A   Scattered Clouds
5:20 PM 66.2 °F 53.6 °F 64% 29.99 in 10.0 mi WSW 5.8 mph - N/A   Scattered Clouds
5:40 PM 64.4 °F 53.6 °F 68% 30.00 in 10.0 mi WSW 6.9 mph - N/A   Mostly Cloudy
6:00 PM 64.4 °F 53.6 °F 68% 30.00 in 10.0 mi West 5.8 mph - N/A   Mostly Cloudy
6:20 PM 64.4 °F 53.6 °F 68% 30.01 in 10.0 mi West 5.8 mph - N/A   Scattered Clouds
6:40 PM 64.4 °F 51.8 °F 64% 30.01 in 10.0 mi West 11.5 mph - N/A   Clear
7:00 PM 62.6 °F 51.8 °F 68% 30.02 in 10.0 mi West 9.2 mph - N/A   Clear
7:20 PM 62.6 °F 51.8 °F 68% 30.02 in 10.0 mi West 5.8 mph - N/A   Clear
7:40 PM 62.6 °F 51.8 °F 68% 30.02 in 10.0 mi West 6.9 mph - N/A   Clear
8:00 PM 62.6 °F 51.8 °F 68% 30.02 in 10.0 mi West 4.6 mph - N/A   Clear
8:20 PM 62.6 °F 51.8 °F 68% 30.02 in 10.0 mi WSW 4.6 mph - N/A   Clear
8:40 PM 60.8 °F 51.8 °F 72% 30.02 in 10.0 mi WSW 3.5 mph - N/A   Clear
9:00 PM 60.8 °F 51.8 °F 72% 30.03 in 10.0 mi WSW 3.5 mph - N/A   Clear
9:20 PM 60.8 °F 51.8 °F 72% 30.03 in 10.0 mi Calm Calm - N/A   Clear
9:40 PM 60.8 °F 51.8 °F 72% 30.03 in 10.0 mi Calm Calm - N/A   Mostly Cloudy
10:00 PM 62.6 °F 51.8 °F 68% 30.04 in 10.0 mi Calm Calm - N/A   Mostly Cloudy
10:20 PM 60.8 °F 51.8 °F 72% 30.04 in 10.0 mi Calm Calm - N/A   Overcast
10:40 PM 60.8 °F 51.8 °F 72% 30.04 in 10.0 mi Calm Calm - N/A   Mostly Cloudy
11:00 PM 59.0 °F 51.8 °F 77% 30.05 in 10.0 mi SSE 4.6 mph - N/A   Scattered Clouds
11:20 PM 57.2 °F 51.8 °F 82% 30.04 in 10.0 mi Calm Calm - N/A   Clear
11:40 PM 60.8 °F 51.8 °F 72% 30.04 in 10.0 mi Calm Calm - N/A   Clear